Latest Observation

20 Stations

Daily Data | America/Los_Angeles
as of 4/21/24 6:59 AM PDT
Station Date Daily Max Temp 5ft (°F) Time of Max Temp Daily Min Temp 5ft (°F) Time of Min Temp Daily Rain (In) Month Precip (In) Season Precip (In) Wind Spd (mph) Daily Max Wind (mph) Time of Max Wind Dew Pt (°F) Max RH (%) Min RH (%) Daily Max Temp 30ft (°F) Daily Min Temp 30ft (°F) Max Inversion (°F) Max Inversion Time Min Inversion (°F) Min Inversion Time Daily Solar Rad (Cal/cm2) MinBV Day (V)
Shandon ETo (SLO-1) 4/20/24 79.8 1636 40.8 0637 0.00 1.52 12.31 2.8 14.8 1148 49.8 99 37 80.5 40.7 8.1 2232 -4.1 1131 595 12.4
Creston Rd (SLO-2) 4/20/24 79.6 1623 41.6 0449 0.00 2.03 13.99 2.9 12.5 1415 48.5 100 32 79.6 43.4 4.5 2230 -4.0 1107 557 12.4
NE Paso Robles (SLO-3) 4/20/24 81.9 1531 42.3 0457 0.00 1.50 13.60 2.7 11.8 1620 49.9 100 34 81.2 43.4 4.2 0042 -4.5 1325 555 12.4
Cross Canyon Rd (SLO-4) 4/20/24 81.2 1655 42.2 0433 0.00 1.62 15.25 4.1 13.5 1908 49.7 100 35 81.1 43.2 6.1 0055 -5.5 1248 531 12.4
Willow Creek (SLO-5) 4/20/24 81.0 1713 39.5 0628 0.00 2.00 26.01 2.5 14.2 1542 45.3 99 25 81.8 40.4 5.0 0040 -4.0 1219 600 12.4
Shell Creek Rd (SLO-6) 4/20/24 80.5 1705 37.6 0612 0.00 1.47 12.22 2.0 11.1 1143 51.0 100 42 80.2 39.2 9.9 2040 -4.9 1210 634 12.4
South Shandon (SLO-7) 4/20/24 80.3 1626 40.2 0508 0.00 1.66 11.89 2.8 11.1 1145 48.9 88 41 80.2 42.1 11.6 2108 -4.3 1155 580 12.4
South Creston (SLO-8) 4/20/24 80.9 1717 39.4 0613 0.00 2.53 14.60 2.4 12.5 1319 48.6 100 32 81.1 41.4 7.1 2128 -4.1 1041 577 12.4
Pozo Rd (SLO-9) 4/20/24 79.2 1612 38.3 0624 0.00 3.21 25.36 2.5 14.2 1605 48.8 100 36 79.6 39.6 5.6 2021 -3.3 1211 573 12.4
Experimental Station (SLO-10) 4/20/24 80.1 1654 43.0 0506 0.00 1.68 17.84 3.7 14.2 1419 47.8 99 31 80.4 43.7 2.9 0055 -4.3 1057 522 12.4
Vineyard Drive (SLO-11) 4/20/24 80.2 1702 37.4 0620 0.00 2.46 30.60 2.7 11.5 1115 47.8 100 30 81.7 40.3 9.0 2357 -3.2 1021 614 12.4
Von Dollen Road (SLO-12) 4/20/24 79.9 1639 43.2 0508 0.00 1.39 14.80 1.4 12.5 1416 51.1 95 44 79.8 44.5 7.2 2100 -5.9 1059 574 12.4
Templeton Gap West (SLO-13) 4/20/24 80.6 1512 38.7 0506 0.00 1.65 18.62 2.3 18.5 2040 48.4 100 29 81.6 41.0 9.6 2219 -4.4 1046 549 12.4
Orcutt Road (SLO-14) 4/20/24 68.9 1339 49.4 0556 0.00 2.56 24.53 2.9 12.8 1616 52.8 100 72 68.2 49.2 9.6 0043 -3.4 1338 523 12.5
Tiffany Ranch Rd (SLO-15) 4/20/24 70.8 1342 46.3 0006 0.00 2.39 20.49 1.9 12.8 1614 53.1 100 69 70.1 47.6 4.1 0032 -3.9 1303 512 12.4
Chimney Rock Rd (SLO-16) 4/20/24 80.4 1640 40.6 0617 0.00 1.98 24.24 1.5 9.1 1248 49.1 100 34 80.7 41.8 8.4 2214 -4.8 1218 648 12.3
Nipomo Mesa (SLO-17) 4/20/24 74.3 1817 46.3 0028 0.00 3.72 23.72 1.4 9.8 1353 53.0 100 58 74.2 49.7 5.9 2342 -5.0 1630 519 12.5
Morro Creek (SLO-18) 4/20/24 61.4 1713 45.1 0006 0.00 2.08 19.14 0.8 10.1 1357 51.3 100 79 60.8 47.3 6.0 0028 -5.3 1350 538 12.4
Paso Robles Airport ETo 4/20/24 78.9 1609 42.9 0428 0.00 1.51 16.77 3.9 16.2 1625 48.1 99 32 79.5 42.3 3.6 2208 -3.8 1149 547 12.4
West Shandon (SLO-20) 4/20/24 81.4 1650 40.4 0612 0.00 1.54 11.33 2.7 12.1 1143 50.2 93 38 81.0 42.4 8.3 2228 -4.6 1130 596 12.4
Max   81.9 - 49.4 - 0.00 3.72 30.60 4.1 18.5 - 53.1 100 79 81.8 49.7 11.6 - -3.2 - 648 12.5
Avg   - - - - - - - 2.5 - - 49.7 - - - - - - - - - -
Min   61.4 - 37.4 - 0.00 1.39 11.33 0.8 9.1 - 45.3 88 25 60.8 39.2 2.9 - -5.9 - 512 12.3